Location: Dover
(48.8500°N, 53.9833°W)
Time: 18:29:55
(UTC+00:00)

Cosmos 2061 Rocket - Pass Details

Date: 14 November 2025
Orbit: 964 x 1012 km, 82.9° (Epoch: 10 December)

Event Time Altitude Azimuth Distance (km) Brightness Sun altitude
Rises 20:49:56 0° 175° (S) 3,701 7.2 -8.9°
Reaches altitude 10° 20:52:29 10° 172° (S) 2,749 6.5 -9.3°
Maximum altitude 20:58:40 62° 93° (E) 1,103 4.0 -10.3°
Drops below altitude 10° 21:04:49 10° 15° (NNE) 2,734 6.1 -11.3°
Sets 21:07:21 0° 12° (NNE) 3,680 6.8 -11.7°
